CZ-3C DEB, 39343

Orbit data source: Space-Track

CZ-3C DEB, 39343 is space debris in HEO originally from a launch on Sun, 31 Oct 2010 UTC launched from the Xichang Space Center, China (XSC). Debris objects in space refer to the collection of defunct objects orbiting the Earth. Examples of debris include non-operational satellites, rocket bodies, and fragments generated from explosions, collisions, or faulty payload assembly.

Loading next visibility...
Identifier
39343, 2010-057H
Orbit
HEO
Country
Flag of CNCN / PRC
Related business
Manufacturer
CALT
Mission
Spacecraft
Bus & Motor
Unknown
Mass
Unknown
Launch date (UTC)
2010-10-31 (16 years ago)
Launch vehicle
Unknown
Launch site
Xichang Space Center, China (XSC)
Object type
Payload
Rocket body
Debris
Shape & HBR
Unknown shape, 0.1 m
Radar Cross Section
Medium (>0.1 m² and <1 m²)

Expand to show TLE details & history
Last TLE update: 4 months ago

TLE from 4 months ago
0 CZ-3C DEB
1 39343U 10057H   26151.71055537 -.00000273  00000-0 -87555-3 0  9990
2 39343  21.9820  31.6949 7117030 216.0763  63.2911  2.32933365107503
Epoch: 2026-05-31T17:03Z
TLE epoch observation values (Epoch: 2026-05-31T17:03:11.983Z)
Latitude
-0.00003°
Longitude
-113.28708°
Altitude
21,531.047 km
Speed
3.462 km/s
True Right ascension
02h 06m 53s
True Declination
0° 00' 00"
Sunlit
Object was in daylight at epoch
Visualization orbit readout
Latitude
Unknown
Longitude
Unknown
Altitude
Unknown
Speed
Unknown
Apparent Right ascension
Unknown
Apparent Declination
Unknown
Sunlit
N/A
Visualization observer readout
Local Sidereal Time
08:06:32
Azimuth
Unknown
Elevation
Unknown
Doppler factor
Unknown
Orbital elements
Apogee altitude
34,776.439 km
Perigee altitude
553.405 km
Semi-major axis
24,043.059 km
Eccentricity
0.7117
Inclination
21.982°
RAAN
31.6949°
Arg. of periapsis
216.0763°
True anomaly
143.85418°
Mean anomaly
63.2911°
Eccentric anomaly
103.0203°
Mean motion
0.58218 °/min
Orbital period
618.36 mins
BSTAR
-0.00087555
Loading maneuver chart data...
Computing Atmospheric mass density...
Loading historical data...
Loading historical data...
Loading historical data...
Loading historical data...
Loading historical data...
Loading historical data...
Loading historical data...

Documentation

Showing up to 5 results
|